Location: ??????????
(48.4699°N, 37.9573°E)
Time: 20:04:28
(UTC+00:00)

Cosmos 1674 - Pass Details

Date: 20 January 2021
Orbit: 492 x 518 km, 82.5° (Epoch: 02 March)

Event Time Altitude Azimuth Distance (km) Brightness Sun altitude
Rises 14:36:02 0° 196° (SSW) 2,625 7.0 -4.9°
Reaches altitude 10° 14:38:11 10° 200° (SSW) 1,745 6.1 -5.3°
Maximum altitude 14:41:58 61° 282° (WNW) 595 3.3 -5.8°
Drops below altitude 10° 14:45:48 10° 3° (N) 1,762 5.1 -6.4°
Sets 14:47:59 0° 7° (N) 2,654 6.0 -6.7°
